Weather History for KCWI - March, 2014

Change the Weather History Date:

Friday, March 7, 2014

  Actual Average (KDVN) Record (KDVN)
Temperature  
Mean Temperature 28 °F 34 °F  
Max Temperature 41 °F 43 °F - ()
Min Temperature 15 °F 25 °F - ()
Degree Days  
Heating Degree Days 37 31  
Month to date heating degree days 226  
Since 1 July heating degree days 5251  
Cooling Degree Days 0 0  
Month to date cooling degree days 0  
Year to date cooling degree days 0  
Moisture  
Dew Point 24 °F    
Average Humidity 79    
Maximum Humidity 93    
Minimum Humidity 61    
Precipitation  
Precipitation 0.00 in 0.07 in - ()
Month to date precipitation 0.51  
Year to date precipitation 3.04  
Snow  
Snow 0.00 in - - ()
Month to date snowfall  
Since 1 July snowfall  
Snow Depth -    
Sea Level Pressure  
Sea Level Pressure 29.96 in    
Wind  
Wind Speed 9 mph (SW)    
Max Wind Speed 13 mph    
Max Gust Speed -    
Visibility 6 miles    
Events      
T = Trace of Precipitation, MM = Missing Value Source: NWS Daily Summary

Daily Weather History Graph

Daily Weather History Graph

Search for Another Location

Airport or City:

Trip Planner

Search our weather history database for the weather conditions in past years. The results will help you decide how hot, cold, wet, or windy it might be!

Date:

Astronomy

Mar. 07, 2014 Rise Set
Actual Time 6:26 AM CST 5:58 PM CST
Civil Twilight 5:58 AM CST 6:26 PM CST
Nautical Twilight 5:26 AM CST 6:58 PM CST
Astronomical Twilight 4:54 AM CST 7:31 PM CST
Moon 10:14 AM CST (3/7) 12:09 AM CST (3/7)
Length of Visible Light 12h 27m
Length of Day
11h 32m
Waxing Crescent, 42% of the Moon is Illuminated
Mar 7
Waxing Crescent
Mar 8
First Quarter
Mar 16
Full
Mar 23
Last Quarter
Mar 30
New

Hourly Weather History & Observations

Time (CST) Temp. Windchill Dew Point Humidity Pressure Visibility Wind Dir Wind Speed Gust Speed Precip Events Conditions
12:15 AM 19.4 °F 7.2 °F 14.0 °F 80% 30.05 in 10.0 mi SSE 11.5 mph - N/A   Clear
12:35 AM 19.4 °F 6.6 °F 14.0 °F 80% 30.04 in 10.0 mi SSE 12.7 mph - N/A   Clear
12:55 AM 17.6 °F 5.7 °F 14.0 °F 86% 30.04 in 9.0 mi SSE 10.4 mph - N/A   Clear
1:15 AM 17.6 °F 6.4 °F 12.2 °F 79% 30.03 in 8.0 mi SSE 9.2 mph - N/A   Clear
1:35 AM 17.6 °F 5.7 °F 12.2 °F 79% 30.02 in 8.0 mi SSE 10.4 mph - N/A   Clear
1:55 AM 17.6 °F 6.4 °F 14.0 °F 86% 30.02 in 8.0 mi SSE 9.2 mph - N/A   Clear
2:15 AM 17.6 °F 5.7 °F 14.0 °F 86% 30.01 in 7.0 mi SSE 10.4 mph - N/A   Clear
2:35 AM 17.6 °F 7.3 °F 14.0 °F 86% 30.00 in 7.0 mi SSE 8.1 mph - N/A   Clear
2:55 AM 17.6 °F 8.2 °F 14.0 °F 86% 30.00 in 7.0 mi SSE 6.9 mph - N/A   Clear
3:15 AM 17.6 °F 8.2 °F 12.2 °F 79% 29.99 in 6.0 mi SSE 6.9 mph - N/A   Clear
3:35 AM 15.8 °F 4.2 °F 12.2 °F 86% 29.98 in 5.0 mi SE 9.2 mph - N/A   Clear
3:55 AM 17.6 °F 8.2 °F 12.2 °F 79% 29.99 in 5.0 mi SE 6.9 mph - N/A   Clear
4:15 AM 17.6 °F 6.4 °F 12.2 °F 79% 29.98 in 5.0 mi SE 9.2 mph - N/A   Clear
4:35 AM 17.6 °F 5.7 °F 15.8 °F 93% 29.97 in 5.0 mi SSE 10.4 mph - N/A   Clear
4:55 AM 17.6 °F 10.7 °F 14.0 °F 86% 29.98 in 5.0 mi SE 4.6 mph - N/A   Clear
5:15 AM 17.6 °F 7.3 °F 15.8 °F 93% 29.97 in 4.0 mi SE 8.1 mph - N/A   Clear
5:35 AM 17.6 °F 8.2 °F 15.8 °F 93% 29.97 in 3.0 mi SE 6.9 mph - N/A   Clear
5:55 AM 17.6 °F 8.2 °F 15.8 °F 93% 29.97 in 3.0 mi SE 6.9 mph - N/A   Clear
6:15 AM 17.6 °F 9.3 °F 15.8 °F 93% 29.97 in 2.5 mi SE 5.8 mph - N/A   Clear
6:35 AM 17.6 °F 8.2 °F 15.8 °F 93% 29.97 in 3.0 mi SSE 6.9 mph - N/A   Clear
6:55 AM 19.4 °F 8.6 °F 15.8 °F 86% 29.97 in 3.0 mi SE 9.2 mph - N/A   Clear
7:15 AM 21.2 °F 10.1 °F 17.6 °F 86% 29.96 in 3.0 mi SSE 10.4 mph - N/A   Clear
7:35 AM 21.2 °F 10.9 °F 17.6 °F 86% 29.96 in 4.0 mi SSE 9.2 mph - N/A   Clear
7:55 AM 23.0 °F 14.7 °F 19.4 °F 86% 29.96 in 5.0 mi South 6.9 mph - N/A   Clear
8:15 AM 24.8 °F 15.3 °F 19.4 °F 80% 29.95 in 5.0 mi South 9.2 mph - N/A   Clear
8:35 AM 26.6 °F 17.5 °F 19.4 °F 74% 29.95 in 5.0 mi SSE 9.2 mph - N/A   Clear
8:55 AM 28.4 °F 19.7 °F 21.2 °F 74% 29.94 in 7.0 mi South 9.2 mph - N/A   Clear
9:15 AM 30.2 °F 22.6 °F 21.2 °F 69% 29.93 in 7.0 mi South 8.1 mph - N/A   Clear
9:35 AM 33.8 °F 26.4 °F 24.8 °F 70% 29.94 in 7.0 mi South 9.2 mph - N/A   Clear
9:55 AM 35.6 °F 29.2 °F 24.8 °F 65% 29.94 in 8.0 mi SSW 8.1 mph - N/A   Clear
10:15 AM 37.4 °F 30.8 °F 26.6 °F 65% 29.93 in 8.0 mi South 9.2 mph - N/A   Clear
10:35 AM 37.4 °F 30.8 °F 26.6 °F 65% 29.91 in 10.0 mi SSW 9.2 mph - N/A   Clear
10:55 AM 37.4 °F 32.8 °F 26.6 °F 65% 29.92 in 9.0 mi SW 5.8 mph - N/A   Clear
11:15 AM 39.2 °F 32.0 °F 26.6 °F 61% 29.91 in 10.0 mi SW 11.5 mph - N/A   Clear
11:35 AM 39.2 °F 32.0 °F 26.6 °F 61% 29.91 in 10.0 mi SW 11.5 mph - N/A   Clear
11:55 AM 39.2 °F 32.5 °F 28.4 °F 65% 29.91 in 10.0 mi SSW 10.4 mph - N/A   Clear
12:15 PM 39.2 °F 33.6 °F 28.4 °F 65% 29.91 in 10.0 mi SW 8.1 mph - N/A   Clear
12:35 PM 39.2 °F 33.0 °F 28.4 °F 65% 29.89 in 10.0 mi SW 9.2 mph - N/A   Clear
12:55 PM 39.2 °F 33.6 °F 28.4 °F 65% 29.90 in 10.0 mi SW 8.1 mph - N/A   Clear
1:15 PM 39.2 °F 35.0 °F 30.2 °F 70% 29.88 in 10.0 mi SW 5.8 mph - N/A   Clear
1:35 PM 39.2 °F 33.0 °F 28.4 °F 65% 29.89 in 10.0 mi SW 9.2 mph - N/A   Clear
1:55 PM 39.2 °F 33.6 °F 30.2 °F 70% 29.89 in 9.0 mi WSW 8.1 mph - N/A   Clear
2:15 PM 39.2 °F 33.6 °F 30.2 °F 70% 29.89 in 9.0 mi WSW 8.1 mph - N/A   Clear
2:35 PM 41.0 °F 35.2 °F 28.4 °F 61% 29.89 in 10.0 mi SW 9.2 mph - N/A   Clear
2:55 PM 39.2 °F 33.6 °F 30.2 °F 70% 29.89 in 8.0 mi WSW 8.1 mph - N/A   Clear
3:15 PM 39.2 °F 34.2 °F 30.2 °F 70% 29.89 in 8.0 mi WSW 6.9 mph - N/A   Clear
3:35 PM 39.2 °F 35.0 °F 30.2 °F 70% 29.89 in 8.0 mi West 5.8 mph - N/A   Clear
3:55 PM 37.4 °F 32.1 °F 30.2 °F 75% 29.89 in 8.0 mi West 6.9 mph - N/A   Clear
4:15 PM 39.2 °F 33.6 °F 30.2 °F 70% 29.90 in 8.0 mi West 8.1 mph - N/A   Clear
4:35 PM 37.4 °F 30.8 °F 30.2 °F 75% 29.90 in 7.0 mi NW 9.2 mph - N/A   Clear
4:55 PM 37.4 °F 30.8 °F 30.2 °F 75% 29.91 in 6.0 mi NW 9.2 mph - N/A   Clear
5:15 PM 37.4 °F 30.8 °F 30.2 °F 75% 29.92 in 5.0 mi NW 9.2 mph - N/A   Partly Cloudy
5:35 PM 35.6 °F 28.6 °F 30.2 °F 81% 29.93 in 5.0 mi NW 9.2 mph - N/A   Scattered Clouds
5:55 PM 35.6 °F 29.2 °F 30.2 °F 81% 29.94 in 4.0 mi NW 8.1 mph - N/A   Partly Cloudy
6:15 PM 35.6 °F 30.7 °F 30.2 °F 81% 29.94 in 4.0 mi NW 5.8 mph - N/A   Partly Cloudy
6:35 PM 35.6 °F 32.8 °F 30.2 °F 81% 29.96 in 5.0 mi WNW 3.5 mph - N/A   Scattered Clouds
6:55 PM 35.6 °F 31.7 °F 30.2 °F 81% 29.96 in 4.0 mi NW 4.6 mph - N/A   Partly Cloudy
7:15 PM 33.8 °F 27.7 °F 30.2 °F 87% 29.97 in 3.0 mi NW 6.9 mph - N/A   Clear
7:35 PM 33.8 °F 30.8 °F 30.2 °F 87% 29.97 in 3.0 mi WNW 3.5 mph - N/A   Clear
7:55 PM 33.8 °F 29.6 °F 30.2 °F 87% 29.98 in 2.5 mi West 4.6 mph - N/A   Clear
8:15 PM 33.8 °F 27.7 °F 30.2 °F 87% 29.99 in 3.0 mi NW 6.9 mph - N/A   Clear
8:35 PM 33.8 °F 28.6 °F 30.2 °F 87% 30.00 in 3.0 mi WNW 5.8 mph - N/A   Clear
8:55 PM 35.6 °F 29.9 °F 30.2 °F 81% 30.01 in 4.0 mi NW 6.9 mph - N/A   Clear
9:15 PM 33.8 °F 28.6 °F 30.2 °F 87% 30.01 in 3.0 mi NW 5.8 mph - N/A   Scattered Clouds
9:35 PM 33.8 °F 29.6 °F 30.2 °F 87% 30.01 in 3.0 mi NNW 4.6 mph - N/A   Overcast
9:55 PM 33.8 °F 27.7 °F 30.2 °F 87% 30.01 in 3.0 mi NNW 6.9 mph - N/A   Overcast
10:15 PM 33.8 °F 27.0 °F 30.2 °F 87% 30.01 in 3.0 mi NNW 8.1 mph - N/A   Mostly Cloudy
10:35 PM 33.8 °F 27.7 °F 30.2 °F 87% 30.02 in 3.0 mi NNW 6.9 mph - N/A   Mostly Cloudy
10:55 PM 33.8 °F 27.7 °F 30.2 °F 87% 30.03 in 3.0 mi NNW 6.9 mph - N/A   Mostly Cloudy
11:15 PM 33.8 °F 26.4 °F 30.2 °F 87% 30.03 in 3.0 mi NNW 9.2 mph - N/A   Clear
11:35 PM 33.8 °F 26.4 °F 30.2 °F 87% 30.03 in 3.0 mi North 9.2 mph - N/A   Clear
11:55 PM 33.8 °F 25.8 °F 30.2 °F 87% 30.04 in 3.0 mi North 10.4 mph - N/A   Clear